Weather in Zarubino

Russia / Novgorod Oblast     58°44′10″N   33°28′23″E
temp.,
°C
wind,
m/s
gust,
m/s
humid.,
%
clouds,
%
prec.,
mm/h
press.,
hPa
HPBL,
m
3 march, wed
wed300:00−4nw3119324 0.0 1016403
03:00−3wnw4109725 0.0 1017442
06:00−2wnw41094100 0.1 1015564
09:00−2w5993100 0.1 1015657
12:00−1w5990100 0.0 1013686
15:000w61086100 0.1 1011924
18:000w51381100 0.0 10081147
21:000w61397100 0.8 1005889
4 march, thu
thu400:000wnw51196100 1.4 1002951
03:00−2wnw51289100 1.6 1002823
06:00−5nw3119330 0.0 1002556
09:00−5nw499049 0.0 1003565
12:00−3nw368298 0.0 1002632
15:00−2nnw357798 0.1 1002886
18:00−4nnw239299 0.1 1002130
21:00−6nnw129798 0.2 100332
5 march, fri
fri500:00−6nnw269484 0.1 1004443
03:00−7nw369492 0.2 1005422
06:00−7nw3893100 0.2 1006481
09:00−8nw3789100 0.3 1007582
12:00−6nw4679100 0.1 1009861
15:00−5nw4678100 0.2 1011908
18:00−7nnw388193 0.1 1012523
21:00−11nnw388746 0.1 1015347
6 march, sat
sat600:00−12nw12920 0.0 101628
03:00−11w239034 0.0 1016103
06:00−10w3894100 0.1 1016360
09:00−9wnw3792100 0.2 1016438
12:00−6w3679100 0.1 1014727
15:00−4wsw586999 0.1 10121227
18:00−5sw51273100 0.0 10071186
21:00−5sw71691100 0.8 10011289
7 march, sun
sun700:00−3sw71593100 1.3 9951249
03:00−3sw71594100 3.3 9891266
06:00−3wnw101593100 2.8 9871283
09:00−9w3127082 2.9 988881
12:00−7wnw388767 0.9 988854
15:00−7w6128682 1.4 9881487
18:00−8wnw4990100 0.3 988849
21:00−8nw51192100 0.7 991817